This is the latest recevied weather packets stored in our database for station/object WD4ITN. If no packets are shown the sender has not sent any weather packets the latest 10 day(s).
| Time | Temp. | Humidity | Pressure | Rain* | Wind** | Luminosity | Snow |
|---|---|---|---|---|---|---|---|
| 1787409496 | 21.67° C | 86% | 1016.4 hPa | 0 mm | - | - | - |
| 1787409213 | 22.22° C | 86% | 1016.5 hPa | 0 mm | - | - | - |
| 1787408895 | 22.22° C | 85% | 1016.6 hPa | 0 mm | - | - | - |
| 1787408614 | 22.22° C | 87% | 1016.7 hPa | 0 mm | - | - | - |
| 1787408019 | 21.67° C | 88% | 1016.6 hPa | 0 mm | - | - | - |
| 1787407708 | 21.67° C | 90% | 1016.7 hPa | 0 mm | - | - | - |
| 1787407409 | 21.11° C | 90% | 1016.7 hPa | 0 mm | - | - | - |
| 1787407107 | 21.11° C | 90% | 1016.8 hPa | 0 mm | - | - | - |
| 1787406810 | 21.11° C | 91% | 1016.9 hPa | 0 mm | - | - | - |
| 1787406501 | 21.11° C | 90% | 1016.9 hPa | 0 mm | - | - | - |
| 1787406204 | 21.11° C | 90% | 1016.9 hPa | 0 mm | - | - | - |
| 1787405903 | 21.11° C | 90% | 1016.9 hPa | 0 mm | - | - | - |
| 1787405602 | 21.11° C | 90% | 1016.9 hPa | 0 mm | - | - | - |
| 1787405319 | 21.11° C | 91% | 1016.8 hPa | 0 mm | - | - | - |
| 1787404994 | 20.56° C | 91% | 1016.7 hPa | 0 mm | - | - | - |
| 1787404712 | 20.56° C | 93% | 1016.6 hPa | 0 mm | - | - | - |
| 1787404410 | 20° C | 95% | 1016.8 hPa | 0 mm | - | - | - |
| 1787404113 | 20° C | 95% | 1016.8 hPa | 0 mm | - | - | - |
| 1787403813 | 19.44° C | 95% | 1016.9 hPa | 0 mm | - | - | - |
| 1787403500 | 19.44° C | 96% | 1016.9 hPa | 0 mm | - | - | - |
| 1787403202 | 18.89° C | 96% | 1016.9 hPa | 0 mm | - | - | - |
| 1787402906 | 18.89° C | 96% | 1016.9 hPa | 0 mm | - | - | - |
| 1787402602 | 18.89° C | 96% | 1017 hPa | 0 mm | - | - | - |
| 1787402294 | 18.89° C | 97% | 1017 hPa | 0 mm | - | - | - |
| 1787402010 | 18.89° C | 97% | 1017.1 hPa | 0 mm | - | - | - |
* Rain since midnight (hover to see other rain measurements)
** Current wind speed in m/s (hover to see current wind gust speed)